User: anonymous   Login
Location: Unspecified
(0.0000°N, 0.0000°E)
Time: 16:35:09
(UTC+00:00)
Language:

Altair - Orbit

View from above orbital plane
View from above orbital plane
View from above satellite
View from above satellite

Ground track
Ground track

The orbit data is extracted from the following two-line orbital elements,

1 00050U 60009B   15090.44748323 -.00000087  00000-0 -27428-5 0  9995
2 00050 047.2301 273.6824 0113863 048.5289 312.5211 12.20091876438088
Epoch (UTC): 31 March 2015 10:44:22
Eccentricity: 0.0113863
inclination: 47.2301°
perigee height: 1501 km
apogee height: 1683 km
right ascension of ascending node: 273.6824°
argument of perigee: 48.5289°
revolutions per day: 12.20091876
mean anomaly at epoch: 312.5211°
orbit number at epoch: 43808

The dashed part of the orbit path shows where the satellite is in the earth's shadow,  

DLR